ZHUHAI-1 02 (CAS-4B)

Last updated on Wed Oct 15 2025 00:02:30 GMT+0000 (Coordinated Universal Time)

1 42759U 17034B 25286.97241530 .03437790 89859-5 10544-2 0 9999 2 42759 42.9888 273.3261 0008256 129.3938 230.7682 16.25684504462559

Satellite not in orbit